Regional Weather Roundup
Issued by NWS

Home | Current Version | Previous Version | Text Only | Print | Product List | Glossary On
Versions: 1 2 3 4 5 6 7 8 9 10 11 12 13 14 15 16 17 18 19 20 21 22 23 24 25 26 27 28 29 30 31 32 33 34 35 36 37 38 39 40 41 42 43 44 45 46 47 48 49 50
000
ASUS43 KDMX 221106
RWRIA

WEATHER ROUNDUP FOR IOWA
NATIONAL WEATHER SERVICE DES MOINES IA
600 AM CDT TUE AUG 22 2017

NOTE: "FAIR" INDICATES FEW OR NO CLOUDS BELOW 12,000 FEET WITH NO
SIGNIFICANT WEATHER AND/OR OBSTRUCTIONS TO VISIBILITY.

* - THESE STATIONS ARE NOT NWS STATIONS...THUS NOT UNDER NWS
QUALITY CONTROL.  THEY ALSO DO NOT REPORT WEATHER SUCH
AS PRECIPITATION OR FOG.

IAZ001>003-012>014-020>022-031>034-043>046-221200-
   NORTHWEST IOWA

CITY           SKY/WX    TMP DP  RH WIND       PRES   REMARKS
CARROLL *      PTCLDY    63  63 100 NW8       30.04R
CHEROKEE *     CLEAR     58  58 100 NW7       30.07R
DENISON *      CLEAR     61  61 100 NW5       30.08R
LE MARS *      CLEAR    106 N/A N/A N5        30.09R
ORANGE CITY *  CLEAR     57  55  94 N8        30.08R
SHELDON *      CLEAR     54  54 100 NW7       30.07R
SIOUX CITY     CLEAR     59  57  93 N6        30.09R
SPENCER        CLEAR     56  53  90 NW10      30.06R
STORM LAKE *   CLEAR     57  55  94 N10       30.06R
$$

IAZ055>058-069>071-079>083-090>094-221200-
   SOUTHWEST IOWA

CITY           SKY/WX    TMP DP  RH WIND       PRES   REMARKS
ATLANTIC *     CLEAR     63  61  94 N5        30.05R
AUDUBON *      CLEAR     63  61  94 NW5       30.06R
CLARINDA *     CLOUDY    61  61 100 CALM      30.08R FOG
COUNCIL BLFS * CLOUDY    64  64 100 NW7       30.07R FOG
CRESTON *      CLOUDY    63  63 100 W8        30.06R
HARLAN  *      CLEAR     63  63 100 CALM      30.10R FOG
LAMONI         MOCLDY    63  62  97 W7        30.03R
RED OAK *      CLOUDY    64  64 100 MISG      30.07R FOG
SHENANDOAH *   FOG       64  64 100 CALM      30.08R VSB 1/4
$$

IAZ047>049-059>061-072>074-084-221200-
   CENTRAL IOWA

CITY           SKY/WX    TMP DP  RH WIND       PRES   REMARKS
AMES           CLEAR     63  63 100 NW8       30.00R
ANKENY *       CLOUDY    64  63  94 W9        30.01R
BOONE *        CLEAR     63  61  94 W8        30.01R
CHARITON *     PTCLDY    64  63  94 W9        30.01R
DES MOINES     MOCLDY    65  63  93 NW10      30.00R
GRINNELL*      CLOUDY    63  61  94 W8        29.98R
KNOXVILLE *    CLOUDY    64  63  94 NW8       29.98R
MARSHALLTOWN   PTCLDY    63  63 100 W8        29.97R
NEWTON *       CLOUDY    63  63 100 W8        29.99R
PELLA *        CLOUDY    65  63  93 W9        29.99R
PERRY *          N/A     62  61  98 W6        30.03R
$$

IAZ004>006-015-016-023>025-035-036-221200-
   NORTH CENTRAL IOWA

CITY           SKY/WX    TMP DP  RH WIND       PRES   REMARKS
ALGONA *       CLEAR     59  57  94 NW9       30.02R
CLARION *      CLEAR     59  59 100 NW8       30.00R
ESTHERVILLE    CLEAR     55  54  96 NW10      30.03R
FORT DODGE *   CLEAR     61  55  82 NW3       30.01R
FOREST CITY *    N/A     61  59  94 NW10      29.99R
WEBSTER CITY * CLEAR     59  59 100 NW8       29.99R
IOWA FALLS *     N/A     61  60  96 W7        30.00R
$$

IAZ007>011-017>019-026>030-037>042-050>054-066-221200-
   NORTHEAST IOWA

CITY           SKY/WX    TMP DP  RH WIND       PRES   REMARKS
CEDAR RAPIDS   CLOUDY    64  63  96 NW13      29.93R
CHARLES CITY * CLEAR     61  61 100 NW8       29.94R
CLINTON *      CLOUDY    65  64  97 W6        29.91S
DECORAH *      PTCLDY    63  61  94 VRB6      29.90R
DUBUQUE        MOCLDY    63  62  97 NW8       29.90R
MONTICELLO *   CLOUDY    64  63  94 W6        29.91R
OELWEIN *      CLOUDY    63  63 100 W12       29.94R
WATERLOO       CLEAR     62  61  96 W9        29.93R
$$

IAZ064-065-067-068-078-221200-
   EAST CENTRAL IOWA

CITY           SKY/WX    TMP DP  RH WIND       PRES   REMARKS
DAVENPORT      CLOUDY    66  64  93 W7        29.93F
IOWA CITY      MOCLDY    67  64  90 W8        29.94R
MT. PLEASANT * CLOUDY    65  65 100 SW5       29.96R
MUSCATINE *    CLOUDY    68  64  88 W6        29.94R
QUAD CITIES    CLOUDY    69  65  86 W6        29.91S
$$

IAZ062-063-075>077-085>089-095>099-221200-
   SOUTHEAST IOWA

CITY           SKY/WX    TMP DP  RH WIND       PRES   REMARKS
BURLINGTON     CLOUDY    68  67  96 NW6       29.95R
FAIRFIELD *    CLOUDY    66  63  88 W7        29.96R
FORT MADISON * CLOUDY    66  66 100 CALM      29.97R
KEOKUK *       CLOUDY    66  64  94 NW9G16    29.96R
OSKALOOSA *      N/A     64  63  96 W9        29.97R
CENTERVILLE *    N/A     64  64 100 CALM      30.02R
OTTUMWA        CLOUDY    66  65  96 W10       29.97R
WASHINGTON *   CLOUDY    66  64  94 W8G14     29.95R
$$

ABBREVIATIONS USED IN REMARKS
   TC - TEMPERATURES IN CELSIUS
  WCI - WIND CHILL INDEX
   HX - HEAT INDEX
  VSB - VISIBILITY
$$





USA.gov is the U.S. government's official web portal to all federal, state and local government web resources and services.